This demonstration page uses our WeatherBlox Daily Observations layout. Learn more.

Left ArrowRight Arrow

44.31136, -96.79839

Hourly Observations for August 5, 2018

Temp ( °F °C ) Dew Point ( °F °C ) Humidity (%) Winds ( mph kmh ) Pressure ( in mb ) Visibility ( mi km ) Precip ( " mm )
12:56 am 00:56 Cloudy with Nearby Thunderstorms 74 23.3 72 22.2 94 94 SW 6 9 29.91 1013 9 14 0.00 0.00
1:19 am 01:19 Mostly Cloudy with Nearby Thunderstorms 72 22 72 22 100 100 NNW 12 19 29.85 1011 6 10 0.01 0.25
1:35 am 01:35 Mostly Cloudy with Light Rain 73 23 72 22 94 94 N 5 7 29.85 1011 8 13 0.02 0.51
1:56 am 01:56 Partly Cloudy with Nearby Thunderstorms 73 22.8 72 22.2 96 96 NNW 7 11 29.92 1013 10 16 0.02 0.51
2:35 am 02:35 Partly Cloudy with Light Rain 72 22 70 21 94 94 S 13 20 29.77 1008 10 16 0.00 0.03
2:46 am 02:46 Mostly Clear 70 21 66 19 88 88 S 18 30 29.83 1010 10 16 0.01 0.25
2:56 am 02:56 Mostly Clear 67 19.4 63 17.2 87 87 S 15 24 29.88 1012 10 16 0.01 0.25
3:56 am 03:56 Clear 65 18.3 59 15 81 81 SSE 10 17 29.90 1013 10 16 0.00 0.00
4:56 am 04:56 Clear 63 17.2 59 15 87 87 SSE 6 9 29.88 1012 10 16 0.00 0.00
5:56 am 05:56 Clear 61 16.1 58 14.4 90 90 Calm 29.89 1012 10 16 0.00 0.00
6:56 am 06:56 Sunny 63 17.2 60 15.6 90 90 S 8 13 29.93 1014 10 16 0.00 0.00
7:56 am 07:56 Sunny 64 17.8 61 16.1 90 90 SSE 3 6 29.94 1014 10 16 0.00 0.00
8:56 am 08:56 Sunny 68 20 62 16.7 81 81 S 5 7 29.94 1014 10 16 0.00 0.00
9:56 am 09:56 Sunny 70 21.1 63 17.2 79 79 WNW 3 6 29.96 1014 10 16 0.00 0.00
10:56 am 10:56 Sunny 72 22.2 65 18.3 79 79 WSW 6 9 29.97 1015 10 16 0.00 0.00
11:56 am 11:56 Sunny 75 23.9 68 20 79 79 SW 7 11 29.99 1016 10 16 0.00 0.00
12:56 pm 12:56 Sunny 77 25 68 20 74 74 SW 13 20 30.01 1016 10 16 0.00 0.00
1:56 pm 13:56 Sunny 78 25.6 69 20.6 74 74 SW 9 15 30.01 1016 10 16 0.00 0.00
2:56 pm 14:56 Sunny 78 25.6 71 21.7 79 79 NW 6 9 29.98 1015 10 16 0.00 0.00
3:56 pm 15:56 Sunny 76 24.4 69 20.6 79 79 WSW 6 9 30.00 1016 10 16 0.00 0.00
4:56 pm 16:56 Sunny 75 23.9 70 21.1 84 84 W 3 6 29.98 1015 10 16 0.00 0.00
5:56 pm 17:56 Partly Cloudy 75 23.9 69 20.6 82 82 S 3 6 29.99 1016 10 16 0.00 0.00
6:56 pm 18:56 Mostly Sunny 73 22.8 67 19.4 81 81 SSW 12 19 N/A 10 16 0.00 0.00
7:56 pm 19:56 Sunny 72 22.2 66 18.9 82 82 WSW 8 13 30.03 1017 10 16 0.00 0.00
8:56 pm 20:56 Clear 70 21.1 65 18.3 84 84 WSW 5 7 30.02 1017 10 16 0.00 0.00
9:56 pm 21:56 Mostly Clear 68 20 65 18.3 90 90 Calm 30.05 1018 10 16 0.00 0.00
10:56 pm 22:56 Clear 66 18.9 63 17.2 90 90 W 3 6 30.05 1018 10 16 0.00 0.00
11:56 pm 23:56 Clear 64 17.8 62 16.7 93 93 NNW 3 6 30.03 1017 10 16 0.00 0.00

Powered by AerisWeather